Погода в Масвинго

Зимбабве     20°04′25″S   30°49′56″E
темп.,
°C
ветер,
м/с
пор.,
м/с
влажн.,
%
обл.,
%
осадки,
мм/ч
давл.,
гПа
погр.,
м
10 августа, ср
ср1023:00+14юв39660 0.0 1021234
02:00+12вюв22820 0.0 102121
05:00+11вюв11900 0.0 102211
08:00+15в23720 0.0 1022264
11:00+24ююв21330 0.0 10201256
14:00+27ю32200 0.0 10162041
17:00+24ююв45250 0.0 1016612
20:00+17вюв38420 0.0 1020142
11 августа, чт
чт1123:00+15в310550 0.0 1020220
02:00+14всв24690 0.0 102075
05:00+13всв22760 0.0 102111
08:00+17всв23560 0.0 1021227
11:00+25юв33240 0.0 10201679
14:00+27юв43190 0.0 10162076
17:00+25юв45220 0.0 1016516
20:00+18вюв35380 0.0 101983
12 августа, пт
пт1223:00+15в36520 0.0 1020106
02:00+14всв35570 0.0 101974
05:00+13ссв22630 0.0 101931
08:00+18с23470 0.0 1019218
11:00+26юз22240 0.0 10181580
14:00+29ю22160 0.0 10142114
17:00+26ю24180 0.0 1013185
20:00+19вюв22290 0.0 101615
13 августа, сб
сб1323:00+17всв22350 0.0 101621
02:00+16св22410 0.0 101517
05:00+14с22420 0.0 101630
08:00+19с48370 0.0 1016280
11:00+29зсз33170 0.0 10131823
14:00+31з23120 0.0 10082483
17:00+29зсз11140 0.0 100711
20:00+22в33203 0.0 101034
14 августа, вс
вс1423:00+19ссв222540 0.0 101113
02:00+18с342850 0.0 101150
05:00+16с35385 0.0 101282
08:00+22ссз512315 0.0 1012367
11:00+31сз57120 0.0 10092679
14:00+33зюз46100 0.0 10063365
17:00+31ююз35110 0.0 1006189
20:00+23ю411170 0.0 1012316